Time,TemperatureF,DewpointF,PressureIn,WindDirection,WindDirectionDegrees,WindSpeedMPH,WindSpeedGustMPH,Humidity,HourlyPrecipIn,Conditions,Clouds,dailyrainin,SoftwareType,DateUTC
2013-10-18 00:04:00,58.1,48.0,29.82,NW,315,11.0,18.0,70,0.00,,,0.10,weatherlink.com 1.10,2013-10-18 04:04:00,
2013-10-18 00:19:00,57.7,48.0,29.82,NW,315,11.0,17.0,69,0.00,,,0.00,weatherlink.com 1.10,2013-10-18 04:19:00,
2013-10-18 00:35:00,57.4,47.0,29.82,NW,312,10.0,14.0,68,0.00,,,0.00,weatherlink.com 1.10,2013-10-18 04:35:00,
2013-10-18 00:50:00,57.0,47.0,29.82,NW,320,7.0,15.0,69,0.00,,,0.00,weatherlink.com 1.10,2013-10-18 04:50:00,
2013-10-18 01:05:00,56.9,46.0,29.83,NW,307,10.0,17.0,67,0.00,,,0.00,weatherlink.com 1.10,2013-10-18 05:05:00,
2013-10-18 01:20:00,56.9,46.0,29.84,West,275,2.0,15.0,66,0.00,,,0.00,weatherlink.com 1.10,2013-10-18 05:20:00,
2013-10-18 01:35:00,57.1,45.0,29.84,WNW,299,4.0,12.0,65,0.00,,,0.00,weatherlink.com 1.10,2013-10-18 05:35:00,
2013-10-18 01:50:00,57.0,46.0,29.83,NNW,331,7.0,13.0,66,0.00,,,0.00,weatherlink.com 1.10,2013-10-18 05:50:00,
2013-10-18 02:05:00,56.8,45.0,29.84,NW,310,4.0,10.0,66,0.00,,,0.00,weatherlink.com 1.10,2013-10-18 06:05:00,
2013-10-18 02:20:00,57.2,45.0,29.84,WNW,302,5.0,12.0,65,0.00,,,0.00,weatherlink.com 1.10,2013-10-18 06:20:00,
2013-10-18 02:35:00,57.1,46.0,29.84,NW,306,1.0,8.0,66,0.00,,,0.00,weatherlink.com 1.10,2013-10-18 06:35:00,
2013-10-18 02:50:00,56.8,46.0,29.85,NW,308,1.0,4.0,68,0.00,,,0.00,weatherlink.com 1.10,2013-10-18 06:50:00,
2013-10-18 03:05:00,56.5,46.0,29.85,NNW,329,1.0,7.0,68,0.00,,,0.00,weatherlink.com 1.10,2013-10-18 07:05:00,
2013-10-18 03:20:00,56.7,46.0,29.85,NW,304,2.0,8.0,67,0.00,,,0.00,weatherlink.com 1.10,2013-10-18 07:20:00,
2013-10-18 03:35:00,56.6,45.0,29.85,NW,304,2.0,9.0,65,0.00,,,0.00,weatherlink.com 1.10,2013-10-18 07:35:00,
2013-10-18 03:50:00,56.6,44.0,29.85,NW,311,1.0,10.0,64,0.00,,,0.00,weatherlink.com 1.10,2013-10-18 07:50:00,
2013-10-18 04:05:00,56.7,44.0,29.85,NW,316,5.0,14.0,63,0.00,,,0.00,weatherlink.com 1.10,2013-10-18 08:05:00,
2013-10-18 04:20:00,56.4,43.0,29.86,NW,304,6.0,17.0,61,0.00,,,0.00,weatherlink.com 1.10,2013-10-18 08:20:00,
2013-10-18 04:35:00,55.8,42.0,29.86,NW,311,6.0,15.0,61,0.00,,,0.00,weatherlink.com 1.10,2013-10-18 08:35:00,
2013-10-18 04:50:00,55.6,42.0,29.87,WNW,300,3.0,13.0,61,0.00,,,0.00,weatherlink.com 1.10,2013-10-18 08:50:00,
2013-10-18 05:05:00,55.1,42.0,29.87,NW,308,4.0,11.0,61,0.00,,,0.00,weatherlink.com 1.10,2013-10-18 09:05:00,
2013-10-18 05:20:00,54.7,41.0,29.87,NW,310,2.0,7.0,61,0.00,,,0.00,weatherlink.com 1.10,2013-10-18 09:20:00,
2013-10-18 05:35:00,54.0,41.0,29.87,NNW,327,6.0,9.0,62,0.00,,,0.00,weatherlink.com 1.10,2013-10-18 09:35:00,
2013-10-18 05:50:00,54.4,41.0,29.88,WNW,302,5.0,8.0,62,0.00,,,0.00,weatherlink.com 1.10,2013-10-18 09:50:00,
2013-10-18 06:05:00,54.0,42.0,29.88,West,259,2.0,7.0,64,0.00,,,0.00,weatherlink.com 1.10,2013-10-18 10:05:00,
2013-10-18 06:20:00,53.2,42.0,29.88,SE,141,0.0,6.0,66,0.00,,,0.00,weatherlink.com 1.10,2013-10-18 10:20:00,
2013-10-18 06:35:00,53.0,42.0,29.89,NNW,327,2.0,8.0,66,0.00,,,0.00,weatherlink.com 1.10,2013-10-18 10:35:00,
2013-10-18 06:50:00,53.5,41.0,29.90,NW,306,8.0,12.0,62,0.00,,,0.00,weatherlink.com 1.10,2013-10-18 10:50:00,
2013-10-18 07:05:00,53.9,40.0,29.90,West,273,5.0,18.0,60,0.00,,,0.00,weatherlink.com 1.10,2013-10-18 11:05:00,
2013-10-18 07:21:00,53.5,40.0,29.91,WNW,296,6.0,12.0,60,0.00,,,0.00,weatherlink.com 1.10,2013-10-18 11:21:00,
2013-10-18 07:36:00,53.2,40.0,29.92,West,271,3.0,9.0,61,0.00,,,0.00,weatherlink.com 1.10,2013-10-18 11:36:00,
2013-10-18 07:51:00,52.9,40.0,29.93,NW,318,6.0,10.0,62,0.00,,,0.00,weatherlink.com 1.10,2013-10-18 11:51:00,
2013-10-18 08:06:00,52.8,40.0,29.93,WNW,290,4.0,9.0,63,0.00,,,0.00,weatherlink.com 1.10,2013-10-18 12:06:00,
2013-10-18 08:21:00,53.5,41.0,29.94,NW,325,9.0,9.0,63,0.00,,,0.00,weatherlink.com 1.10,2013-10-18 12:21:00,
2013-10-18 08:36:00,54.2,41.0,29.95,WNW,284,4.0,9.0,61,0.00,,,0.00,weatherlink.com 1.10,2013-10-18 12:36:00,
2013-10-18 08:51:00,54.7,41.0,29.95,NW,325,3.0,17.0,60,0.00,,,0.00,weatherlink.com 1.10,2013-10-18 12:51:00,
2013-10-18 09:06:00,55.2,41.0,29.96,WNW,300,3.0,11.0,60,0.00,,,0.00,weatherlink.com 1.10,2013-10-18 13:06:00,
2013-10-18 09:21:00,56.1,42.0,29.96,WNW,303,1.0,8.0,59,0.00,,,0.00,weatherlink.com 1.10,2013-10-18 13:21:00,
2013-10-18 09:36:00,56.2,41.0,29.96,West,275,2.0,13.0,58,0.00,,,0.00,weatherlink.com 1.10,2013-10-18 13:36:00,
2013-10-18 09:51:00,56.2,41.0,29.96,WNW,293,4.0,13.0,58,0.00,,,0.00,weatherlink.com 1.10,2013-10-18 13:51:00,
2013-10-18 10:06:00,56.7,41.0,29.97,NNW,331,3.0,10.0,57,0.00,,,0.00,weatherlink.com 1.10,2013-10-18 14:06:00,
2013-10-18 10:21:00,57.1,42.0,29.97,NW,310,3.0,15.0,58,0.00,,,0.00,weatherlink.com 1.10,2013-10-18 14:21:00,
2013-10-18 10:36:00,57.4,42.0,29.97,NW,324,5.0,14.0,57,0.00,,,0.00,weatherlink.com 1.10,2013-10-18 14:36:00,
2013-10-18 10:51:00,58.0,42.0,29.97,NW,306,9.0,14.0,55,0.00,,,0.00,weatherlink.com 1.10,2013-10-18 14:51:00,
2013-10-18 11:06:00,58.6,42.0,29.97,NNW,340,4.0,11.0,55,0.00,,,0.00,weatherlink.com 1.10,2013-10-18 15:06:00,
2013-10-18 11:21:00,58.7,43.0,29.98,West,281,13.0,17.0,56,0.00,,,0.00,weatherlink.com 1.10,2013-10-18 15:21:00,
2013-10-18 11:36:00,58.9,43.0,29.98,WNW,283,3.0,13.0,56,0.00,,,0.00,weatherlink.com 1.10,2013-10-18 15:36:00,
2013-10-18 11:51:00,59.0,43.0,29.98,WSW,252,6.0,11.0,55,0.00,,,0.00,weatherlink.com 1.10,2013-10-18 15:51:00,
2013-10-18 12:21:00,60.5,44.0,29.97,NW,322,1.0,10.0,54,0.00,,,0.00,weatherlink.com 1.10,2013-10-18 16:21:00,
2013-10-18 12:36:00,60.9,43.0,29.96,WNW,302,6.0,10.0,53,0.00,,,0.00,weatherlink.com 1.10,2013-10-18 16:36:00,
2013-10-18 12:51:00,61.1,44.0,29.96,NW,325,5.0,9.0,53,0.00,,,0.00,weatherlink.com 1.10,2013-10-18 16:51:00,
2013-10-18 13:06:00,61.4,42.0,29.95,NNW,339,8.0,11.0,50,0.00,,,0.00,weatherlink.com 1.10,2013-10-18 17:06:00,
2013-10-18 13:21:00,62.1,43.0,29.94,NNW,329,1.0,10.0,49,0.00,,,0.00,weatherlink.com 1.10,2013-10-18 17:21:00,
2013-10-18 13:36:00,62.4,42.0,29.94,NW,307,4.0,12.0,48,0.00,,,0.00,weatherlink.com 1.10,2013-10-18 17:36:00,
2013-10-18 13:51:00,63.0,42.0,29.94,NNW,330,4.0,12.0,47,0.00,,,0.00,weatherlink.com 1.10,2013-10-18 17:51:00,
2013-10-18 14:07:00,63.8,42.0,29.93,NW,307,4.0,9.0,46,0.00,,,0.00,weatherlink.com 1.10,2013-10-18 18:07:00,
2013-10-18 14:21:00,63.8,42.0,29.93,NW,320,4.0,9.0,45,0.00,,,0.00,weatherlink.com 1.10,2013-10-18 18:21:00,
2013-10-18 14:36:00,64.0,41.0,29.92,NW,326,1.0,12.0,44,0.00,,,0.00,weatherlink.com 1.10,2013-10-18 18:36:00,
2013-10-18 14:51:00,64.2,42.0,29.92,WSW,244,1.0,7.0,45,0.00,,,0.00,weatherlink.com 1.10,2013-10-18 18:51:00,
2013-10-18 15:06:00,64.6,42.0,29.92,NNW,348,2.0,10.0,44,0.00,,,0.00,weatherlink.com 1.10,2013-10-18 19:06:00,
2013-10-18 15:22:00,65.2,42.0,29.92,West,262,5.0,11.0,43,0.00,,,0.00,weatherlink.com 1.10,2013-10-18 19:22:00,
2013-10-18 15:37:00,65.5,43.0,29.92,WNW,283,3.0,8.0,44,0.00,,,0.00,weatherlink.com 1.10,2013-10-18 19:37:00,
2013-10-18 15:52:00,65.5,42.0,29.91,WNW,293,0.0,9.0,43,0.00,,,0.00,weatherlink.com 1.10,2013-10-18 19:52:00,
2013-10-18 16:07:00,65.6,41.0,29.91,WNW,294,2.0,11.0,41,0.00,,,0.00,weatherlink.com 1.10,2013-10-18 20:07:00,
2013-10-18 16:22:00,66.2,42.0,29.91,WNW,293,3.0,7.0,41,0.00,,,0.00,weatherlink.com 1.10,2013-10-18 20:22:00,
2013-10-18 16:37:00,66.5,42.0,29.90,NNW,329,1.0,5.0,41,0.00,,,0.00,weatherlink.com 1.10,2013-10-18 20:37:00,
2013-10-18 16:52:00,66.0,41.0,29.91,NNW,327,2.0,5.0,40,0.00,,,0.00,weatherlink.com 1.10,2013-10-18 20:52:00,
2013-10-18 17:07:00,66.5,41.0,29.90,WNW,289,0.0,4.0,40,0.00,,,0.00,weatherlink.com 1.10,2013-10-18 21:07:00,
2013-10-18 17:22:00,65.9,41.0,29.90,NNW,333,0.0,4.0,41,0.00,,,0.00,weatherlink.com 1.10,2013-10-18 21:22:00,
2013-10-18 17:37:00,64.6,43.0,29.91,WNW,300,0.0,3.0,46,0.00,,,0.00,weatherlink.com 1.10,2013-10-18 21:37:00,
2013-10-18 17:52:00,63.3,44.0,29.91,NW,307,0.0,2.0,50,0.00,,,0.00,weatherlink.com 1.10,2013-10-18 21:52:00,
2013-10-18 18:07:00,62.0,46.0,29.92,NW,308,0.0,1.0,56,0.00,,,0.00,weatherlink.com 1.10,2013-10-18 22:07:00,
2013-10-18 18:22:00,60.3,45.0,29.92,NW,308,0.0,0.0,58,0.00,,,0.00,weatherlink.com 1.10,2013-10-18 22:22:00,
2013-10-18 18:37:00,58.3,45.0,29.92,NW,307,0.0,-999.0,62,28.70,,,0.00,weatherlink.com 1.10,2013-10-18 22:37:00,
2013-10-18 18:52:00,56.3,46.0,29.92,NW,308,0.0,0.0,68,0.00,,,0.00,weatherlink.com 1.10,2013-10-18 22:52:00,
2013-10-18 19:07:00,54.0,46.0,29.92,NW,308,0.0,0.0,73,0.00,,,0.00,weatherlink.com 1.10,2013-10-18 23:07:00,
2013-10-18 19:22:00,52.4,46.0,29.93,NW,307,0.0,0.0,78,0.00,,,0.00,weatherlink.com 1.10,2013-10-18 23:22:00,
2013-10-18 19:37:00,51.2,45.0,29.93,NW,307,0.0,0.0,80,0.00,,,0.00,weatherlink.com 1.10,2013-10-18 23:37:00,
2013-10-18 19:52:00,50.2,46.0,29.93,NW,307,0.0,0.0,84,0.00,,,0.00,weatherlink.com 1.10,2013-10-18 23:52:00,
2013-10-18 20:07:00,49.3,45.0,29.94,NW,307,0.0,0.0,86,0.00,,,0.00,weatherlink.com 1.10,2013-10-19 00:07:00,
2013-10-18 20:22:00,48.6,45.0,29.94,NW,307,0.0,0.0,86,0.00,,,0.00,weatherlink.com 1.10,2013-10-19 00:22:00,
2013-10-18 20:37:00,47.9,45.0,29.94,NW,307,0.0,0.0,88,0.00,,,0.00,weatherlink.com 1.10,2013-10-19 00:37:00,
2013-10-18 20:52:00,47.2,44.0,29.94,NW,307,0.0,0.0,89,0.00,,,0.00,weatherlink.com 1.10,2013-10-19 00:52:00,
2013-10-18 21:07:00,46.8,44.0,29.94,NW,308,0.0,0.0,91,0.00,,,0.00,weatherlink.com 1.10,2013-10-19 01:07:00,
2013-10-18 21:22:00,46.4,44.0,29.94,NW,307,0.0,0.0,92,0.00,,,0.00,weatherlink.com 1.10,2013-10-19 01:22:00,
2013-10-18 21:37:00,45.9,44.0,29.95,NW,307,0.0,0.0,92,0.00,,,0.00,weatherlink.com 1.10,2013-10-19 01:37:00,
2013-10-18 21:53:00,45.2,43.0,29.95,NW,307,0.0,0.0,92,0.00,,,0.00,weatherlink.com 1.10,2013-10-19 01:53:00,
2013-10-18 22:07:00,44.8,43.0,29.96,NW,307,0.0,0.0,93,0.00,,,0.00,weatherlink.com 1.10,2013-10-19 02:07:00,
2013-10-18 22:22:00,44.5,43.0,29.96,NW,307,0.0,0.0,94,0.00,,,0.00,weatherlink.com 1.10,2013-10-19 02:22:00,
2013-10-18 22:37:00,44.2,43.0,29.96,NW,307,0.0,0.0,94,0.00,,,0.00,weatherlink.com 1.10,2013-10-19 02:37:00,
2013-10-18 22:52:00,43.9,43.0,29.96,NW,307,0.0,0.0,95,0.00,,,0.00,weatherlink.com 1.10,2013-10-19 02:52:00,
2013-10-18 23:07:00,43.7,42.0,29.96,NW,307,0.0,0.0,95,0.00,,,0.00,weatherlink.com 1.10,2013-10-19 03:07:00,
2013-10-18 23:22:00,43.4,42.0,29.95,NW,307,0.0,0.0,95,0.00,,,0.00,weatherlink.com 1.10,2013-10-19 03:22:00,
2013-10-18 23:37:00,43.1,42.0,29.95,NW,307,0.0,0.0,95,0.00,,,0.00,weatherlink.com 1.10,2013-10-19 03:37:00,
2013-10-18 23:53:00,42.7,41.0,29.95,NW,307,0.0,0.0,95,0.00,,,0.00,weatherlink.com 1.10,2013-10-19 03:53:00,